Redding, CA

10:48 PM PDT on August 18, 2017 (GMT -0700)
Redding Municipal

Weather History for KRDD - February, 2012

Change the Weather History Date:

Tuesday, February 21, 2012

  Actual Average Record
Temperature  
Mean Temperature 55 °F -  
Max Temperature 69 °F 61 °F 78 °F (1995)
Min Temperature 41 °F 40 °F 29 °F (2006)
Degree Days  
Heating Degree Days 10    
Month to date heating degree days 306  
Cooling Degree Days 0    
Month to date cooling degree days 0  
Year to date cooling degree days 0  
Growing Degree Days 5 (Base 50)    
Moisture  
Dew Point 43 °F    
Average Humidity 66    
Maximum Humidity 89    
Minimum Humidity 42    
Precipitation  
Precipitation 0.00 in 0.19 in 1.03 in (1998)
Month to date precipitation 0.92 4.17  
Year to date precipitation 6.74 10.13  
Since 1 July precipitation 13.07  
Sea Level Pressure  
Sea Level Pressure 30.27 in    
Wind  
Wind Speed 2 mph (NNW)    
Max Wind Speed 8 mph    
Max Gust Speed 9 mph    
Visibility 10 miles    
Events      
T = Trace of Precipitation, MM = Missing Value Source: NWS Daily Summary

Daily Weather History Graph

Daily Weather History Graph

Search for Another Location

Airport or City:

Trip Planner

Search our weather history database for the weather conditions in past years. The results will help you decide how hot, cold, wet, or windy it might be!

Date:

Astronomy

Feb. 21, 2012 Rise Set
Actual Time 6:55 AM PST 5:50 PM PST
Civil Twilight 6:27 AM PST 6:18 PM PST
Nautical Twilight 5:55 AM PST 6:50 PM PST
Astronomical Twilight 5:24 AM PST 7:22 PM PST
Moon 6:26 AM PST (2/21) 6:03 PM PST (2/21)
Length of Visible Light 11h 51m
Length of Day
10h 55m
Waning Crescent, 0% of the Moon is Illuminated
Feb 21
Waning Crescent
Feb 21
New
Feb 29
First Quarter
Mar 8
Full
Mar 14
Last Quarter

Hourly Weather History & Observations

Time (PST) Temp. Windchill Dew Point Humidity Pressure Visibility Wind Dir Wind Speed Gust Speed Precip Events Conditions
12:53 AM 46.9 °F - 39.9 °F 77% 30.23 in 10.0 mi Calm Calm - N/A   Overcast
1:53 AM 46.0 °F - 39.9 °F 79% 30.23 in 10.0 mi Calm Calm - N/A   Clear
2:53 AM 44.1 °F - 39.9 °F 85% 30.23 in 10.0 mi Calm Calm - N/A   Clear
3:53 AM 45.0 °F - 39.0 °F 80% 30.22 in 10.0 mi Calm Calm - N/A   Clear
4:53 AM 45.0 °F 43.5 °F 39.0 °F 80% 30.22 in 10.0 mi North 3.5 mph - N/A   Clear
5:53 AM 42.1 °F - 37.9 °F 85% 30.26 in 10.0 mi Calm Calm - N/A   Clear
6:53 AM 44.1 °F 40.8 °F 39.0 °F 82% 30.25 in 10.0 mi NNW 5.8 mph - N/A   Clear
7:53 AM 43.0 °F - 39.0 °F 86% 30.30 in 10.0 mi Calm Calm - N/A   Clear
8:53 AM 50.0 °F - 42.1 °F 74% 30.30 in 10.0 mi NE 4.6 mph - N/A   Clear
9:53 AM 55.9 °F - 41.0 °F 57% 30.30 in 10.0 mi Calm Calm - N/A   Clear
10:53 AM 61.0 °F - 43.0 °F 52% 30.29 in 10.0 mi NNE 3.5 mph - N/A   Clear
11:53 AM 64.0 °F - 44.1 °F 48% 30.29 in 10.0 mi North 4.6 mph - N/A   Clear
12:53 PM 66.9 °F - 44.1 °F 44% 30.27 in 10.0 mi Calm Calm - N/A   Clear
1:53 PM 68.0 °F - 44.6 °F 43% 30.26 in 10.0 mi NE 3.5 mph - N/A   Clear
2:53 PM 68.0 °F - 44.1 °F 42% 30.25 in 10.0 mi NW 3.5 mph - N/A   Clear
3:53 PM 68.0 °F - 46.0 °F 45% 30.25 in 10.0 mi WNW 3.5 mph - N/A   Clear
4:53 PM 66.9 °F - 46.9 °F 49% 30.25 in 10.0 mi Calm Calm - N/A   Clear
5:53 PM 63.0 °F - 46.9 °F 56% 30.25 in 10.0 mi Calm Calm - N/A   Clear
6:53 PM 59.0 °F - 48.9 °F 69% 30.27 in 10.0 mi Calm Calm - N/A   Clear
7:53 PM 59.0 °F - 46.9 °F 64% 30.28 in 10.0 mi NNW 4.6 mph - N/A   Clear
8:53 PM 54.0 °F - 46.9 °F 77% 30.29 in 10.0 mi West 3.5 mph - N/A   Clear
9:53 PM 55.9 °F - 46.9 °F 72% 30.31 in 10.0 mi ESE 5.8 mph - N/A   Clear
10:53 PM 57.0 °F - 45.0 °F 64% 30.32 in 10.0 mi WNW 4.6 mph - N/A   Clear
11:53 PM 55.9 °F - 44.1 °F 64% 30.32 in 10.0 mi WNW 4.6 mph - N/A   Clear